time_stamp(utc),avg(mph),gust(mph),direction(deg),12m_air_temp(f),sonic_u(cm/s),sonic_v(cm/s),sonic_w(cm/s),pressure,2m_air_temp(f),pyranometer(W/m^2)
"2020-05-12 00:03:21+00",28.0,36.0,,52.3,-1123,630,88,1012.15,51.9,0
"2020-05-12 00:08:21+00",34.3,39.3,,52.1,-1412,656,79,1012.12,51.7,0
"2020-05-12 00:13:21+00",32.6,36.6,,51.9,-1392,612,75,1012.31,51.5,0
"2020-05-12 00:18:21+00",29.5,32.5,,51.8,-1181,624,54,1012.41,51.3,0
"2020-05-12 00:23:21+00",28.8,35.8,,51.6,-1213,562,73,1012.48,51.1,0
"2020-05-12 00:28:21+00",26.9,30.9,,51.6,-1088,515,59,1012.75,51,0
"2020-05-12 00:33:21+00",23.6,25.6,,51.4,-969,463,42,1012.81,50.8,0
"2020-05-12 00:38:21+00",21.9,24.9,,51.3,-881,455,44,1012.81,50.7,0
"2020-05-12 00:43:21+00",22.5,25.5,,51.1,-920,431,55,1012.93,50.5,0
"2020-05-12 00:48:21+00",22.6,25.6,,51,-892,531,63,1012.98,50.4,0
"2020-05-12 00:53:21+00",22.1,25.1,,50.9,-840,543,42,1012.95,50.3,0
"2020-05-12 00:58:21+00",26.3,30.3,,50.9,-1035,604,73,1013.07,50.2,0
"2020-05-12 01:03:21+00",25.3,28.3,,50.9,-983,600,58,1013.17,50.2,0
"2020-05-12 01:08:21+00",23.7,27.7,,50.7,-930,593,54,1013.32,50.2,0
"2020-05-12 01:13:21+00",20.6,24.6,,50.7,-790,489,57,1013.41,50.1,0
"2020-05-12 01:18:21+00",21.0,25.0,,50.7,-792,529,45,1013.56,50.1,0
"2020-05-12 01:23:21+00",21.9,24.9,,50.7,-858,509,67,1013.6,50.1,0
"2020-05-12 01:28:21+00",22.8,27.8,,50.7,-874,556,45,1013.7,50.2,0
"2020-05-12 01:33:21+00",25.1,28.1,,50.8,-948,635,58,1013.77,50.2,0
"2020-05-12 01:38:21+00",21.8,22.8,,50.7,-848,517,51,1013.93,50.2,0
"2020-05-12 01:43:21+00",21.4,25.4,,50.7,-827,515,56,1014.08,50.2,0
"2020-05-12 01:48:21+00",23.1,25.1,,50.7,-878,559,45,1014.2,50.3,0
"2020-05-12 01:53:21+00",20.1,25.1,,50.8,-809,444,49,1014.25,50.4,0
"2020-05-12 01:58:21+00",22.3,24.3,,50.8,-893,501,52,1014.28,50.3,0
"2020-05-12 02:03:21+00",24.4,27.4,,50.7,-947,577,53,1014.34,50.4,0
"2020-05-12 02:08:21+00",21.7,23.7,,50.7,-834,528,38,1014.31,50.3,0
"2020-05-12 02:13:21+00",21.7,25.7,,50.7,-832,537,42,1014.38,50.3,0
"2020-05-12 02:18:21+00",20.9,23.9,,50.7,-809,490,50,1014.52,50.3,0
"2020-05-12 02:23:21+00",18.6,22.6,,50.7,-707,448,72,1014.59,50.3,0
"2020-05-12 02:28:21+00",20.0,23.0,,50.7,-788,471,38,1014.59,50.3,0
"2020-05-12 02:33:21+00",17.8,20.8,,50.7,-718,364,52,1014.69,50.3,0
"2020-05-12 02:38:21+00",19.4,22.4,,50.7,-764,429,35,1014.74,50.3,0
"2020-05-12 02:43:21+00",18.3,26.3,,50.7,-758,364,41,1014.87,50.3,0
"2020-05-12 02:48:21+00",18.2,22.2,,50.7,-754,315,39,1014.82,50.3,0
"2020-05-12 02:53:21+00",21.8,24.8,,50.7,-857,485,58,1014.82,50.4,0
"2020-05-12 02:58:21+00",18.0,21.0,,50.7,-775,309,49,1014.84,50.3,0
"2020-05-12 03:03:21+00",18.9,20.9,,50.6,-746,409,52,1014.9,50.3,0
"2020-05-12 03:08:21+00",18.9,20.9,,50.6,-789,341,41,1014.92,50.3,0
"2020-05-12 03:13:21+00",19.3,20.3,,50.6,-798,369,43,1014.9,50.3,0
"2020-05-12 03:18:21+00",20.5,21.5,,50.6,-818,393,18,1014.98,50.2,0
"2020-05-12 03:23:21+00",18.7,23.7,,50.6,-801,328,63,1014.99,50.2,0
"2020-05-12 03:28:21+00",18.0,20.0,,50.5,-749,348,32,1015.13,50.1,0
"2020-05-12 03:33:21+00",17.5,20.5,,50.4,-721,333,58,1015.07,50.1,0
"2020-05-12 03:38:21+00",17.4,19.4,,50.3,-745,308,39,1015.1,50,0
"2020-05-12 03:43:21+00",18.6,21.6,,50.2,-773,359,35,1015.14,49.9,0
"2020-05-12 03:48:21+00",17.3,20.3,,50,-697,332,51,1015.23,49.7,0
"2020-05-12 03:53:21+00",18.2,21.2,,49.9,-732,363,61,1015.26,49.5,0
"2020-05-12 03:58:21+00",19.4,20.4,,49.8,-806,372,38,1015.3,49.3,0
"2020-05-12 04:03:21+00",15.5,17.5,,49.6,-654,276,41,1015.37,49.2,0
"2020-05-12 04:08:21+00",17.6,18.6,,49.6,-718,348,39,1015.35,49.1,0
"2020-05-12 04:13:21+00",14.7,15.7,,49.4,-591,306,33,1015.35,49,0
"2020-05-12 04:18:21+00",14.8,16.8,,49.4,-576,331,36,1015.36,48.9,0
"2020-05-12 04:23:21+00",15.9,16.9,,49.3,-634,348,16,1015.43,48.8,0
"2020-05-12 04:28:21+00",13.2,15.2,,49.3,-535,283,30,1015.46,48.9,0
"2020-05-12 04:33:21+00",12.4,14.4,,49.3,-503,221,49,1015.49,48.9,0
"2020-05-12 04:38:21+00",13.3,15.3,,49.3,-555,256,62,1015.53,49,0
"2020-05-12 04:43:21+00",14.3,18.3,,49.2,-599,293,45,1015.56,49,0
"2020-05-12 04:48:21+00",13.8,15.8,,49.1,-563,276,71,1015.62,48.9,0
"2020-05-12 04:53:21+00",16.2,18.2,,49.1,-706,200,53,1015.64,49,0
"2020-05-12 04:58:21+00",19.0,20.0,,49.1,-809,322,51,1015.58,49,0
"2020-05-12 05:03:21+00",19.4,20.4,,49,-839,281,38,1015.61,49,0
"2020-05-12 05:08:21+00",16.8,20.8,,49.1,-738,250,56,1015.72,49,0
"2020-05-12 05:13:21+00",20.4,22.4,,48.9,-891,254,51,1015.68,48.9,0
"2020-05-12 05:18:21+00",19.3,22.3,,48.7,-871,189,53,1015.68,48.9,0
"2020-05-12 05:23:21+00",17.4,20.4,,48.6,-734,275,71,1015.64,48.8,0
"2020-05-12 05:28:21+00",21.9,24.9,,48.4,-920,392,73,1015.55,48.6,0
"2020-05-12 05:33:21+00",19.2,22.2,,48.2,-772,386,61,1015.56,48.3,0
"2020-05-12 05:38:21+00",22.6,26.6,,48.1,-967,364,65,1015.58,48.1,0
"2020-05-12 05:43:21+00",19.8,23.8,,48,-848,316,83,1015.54,47.9,0
"2020-05-12 05:48:21+00",19.2,22.2,,47.7,-852,277,53,1015.58,47.7,0
"2020-05-12 05:53:21+00",21.5,24.5,,47.5,-865,463,54,1015.51,47.5,0
"2020-05-12 05:58:21+00",19.8,21.8,,47.3,-837,337,53,1015.6,47.3,0
"2020-05-12 06:03:21+00",20.6,23.6,,47.2,-881,345,48,1015.57,47.2,0
"2020-05-12 06:08:21+00",16.4,18.4,,47.1,-683,318,89,1015.59,47,0
"2020-05-12 06:13:21+00",19.7,20.7,,46.9,-811,366,45,1015.65,46.7,0
"2020-05-12 06:18:21+00",17.0,19.0,,46.8,-727,277,46,1015.65,46.7,0
"2020-05-12 06:23:21+00",19.4,21.4,,46.7,-786,414,28,1015.66,46.5,0
"2020-05-12 06:28:21+00",16.0,18.0,,46.6,-680,278,39,1015.62,46.4,0
"2020-05-12 06:33:21+00",18.6,21.6,,46.6,-783,302,71,1015.71,46.4,0
"2020-05-12 06:38:21+00",18.6,20.6,,46.6,-798,290,38,1015.67,46.5,0
"2020-05-12 06:43:21+00",18.0,19.0,,46.5,-734,349,23,1015.7,46.5,0
"2020-05-12 06:48:21+00",15.5,16.5,,46.7,-642,261,41,1015.83,46.5,0
"2020-05-12 06:53:21+00",14.5,15.5,,46.7,-617,256,27,1015.83,46.6,0
"2020-05-12 06:58:21+00",15.2,17.2,,46.9,-699,113,47,1015.67,46.7,0
"2020-05-12 07:03:21+00",18.2,19.2,,46.8,-810,157,53,1015.69,46.9,0
"2020-05-12 07:08:21+00",17.4,20.4,,46.9,-768,165,77,1015.67,46.9,0
"2020-05-12 07:13:21+00",16.8,18.8,,46.8,-706,266,70,1015.65,46.9,0
"2020-05-12 07:18:21+00",20.2,22.2,,46.8,-840,353,50,1015.61,46.8,0
"2020-05-12 07:23:21+00",19.9,20.9,,46.8,-842,321,48,1015.69,46.7,0
"2020-05-12 07:28:21+00",22.0,25.0,,46.9,-978,222,44,1015.67,46.7,0
"2020-05-12 07:33:21+00",21.1,24.1,,46.8,-915,326,74,1015.6,46.5,0
"2020-05-12 07:38:21+00",23.1,26.1,,46.6,-929,466,42,1015.58,46.3,0
"2020-05-12 07:43:21+00",18.6,22.6,,46.5,-772,332,51,1015.64,46.1,0
"2020-05-12 07:48:21+00",25.7,27.7,,46.3,-1045,499,42,1015.62,45.9,0
"2020-05-12 07:53:21+00",20.8,23.8,,46.2,-896,361,42,1015.7,45.8,0
"2020-05-12 07:58:21+00",20.1,23.1,,46.2,-834,372,48,1015.79,45.8,0
"2020-05-12 08:03:21+00",21.9,23.9,,46.1,-859,472,51,1015.79,45.8,0
"2020-05-12 08:08:21+00",20.7,24.7,,46,-801,448,61,1015.79,45.8,0
"2020-05-12 08:13:21+00",22.4,24.4,,45.9,-958,335,47,1015.79,45.8,0
"2020-05-12 08:18:21+00",21.2,25.2,,45.9,-885,398,49,1015.87,45.7,0
"2020-05-12 08:23:21+00",20.8,24.8,,46,-873,402,44,1015.92,45.7,0
"2020-05-12 08:28:21+00",22.5,25.5,,45.8,-980,284,61,1015.99,45.7,0
"2020-05-12 08:33:21+00",22.7,24.7,,45.8,-958,366,30,1015.92,45.7,0
"2020-05-12 08:38:21+00",24.1,26.1,,45.7,-995,406,40,1015.98,45.6,0
"2020-05-12 08:43:21+00",17.5,19.5,,45.7,-735,336,51,1016.05,45.4,0
"2020-05-12 08:48:21+00",20.4,23.4,,45.5,-874,369,42,1016.12,45.3,0
"2020-05-12 08:53:21+00",18.1,21.1,,45.5,-747,311,68,1016.26,45.2,0
"2020-05-12 08:58:21+00",21.3,24.3,,45.5,-922,293,44,1016.37,45.3,0
"2020-05-12 09:03:21+00",19.8,21.8,,45.5,-825,365,60,1016.47,45.2,0
"2020-05-12 09:08:21+00",19.7,21.7,,45.4,-828,373,46,1016.36,45.1,0
"2020-05-12 09:13:21+00",20.9,22.9,,45.3,-874,356,54,1016.39,45,0
"2020-05-12 09:18:21+00",21.4,23.4,,45.2,-862,445,59,1016.37,44.8,0
"2020-05-12 09:23:21+00",17.7,20.7,,45.2,-704,370,68,1016.49,44.7,0
"2020-05-12 09:28:21+00",19.6,21.6,,45.1,-796,376,15,1016.55,44.6,0
"2020-05-12 09:33:21+00",18.3,22.3,,45.1,-748,394,54,1016.69,44.5,0
"2020-05-12 09:38:21+00",17.6,18.6,,45.1,-751,281,35,1016.75,44.5,0
"2020-05-12 09:43:21+00",19.2,22.2,,45,-820,313,43,1016.66,44.4,0
"2020-05-12 09:48:21+00",17.4,20.4,,45,-760,240,46,1016.86,44.4,0
"2020-05-12 09:53:21+00",17.9,19.9,,44.9,-752,301,33,1016.9,44.4,0
"2020-05-12 09:58:21+00",14.9,19.9,,45,-665,164,68,1017.08,44.5,0
"2020-05-12 10:03:21+00",16.6,18.6,,44.8,-718,163,45,1017.2,44.5,0
"2020-05-12 10:08:21+00",18.9,20.9,,44.7,-850,190,43,1017.31,44.5,0
"2020-05-12 10:13:21+00",17.9,19.9,,44.6,-805,172,34,1017.42,44.4,0
"2020-05-12 10:18:21+00",16.7,18.7,,44.5,-770,154,42,1017.43,44.3,0
"2020-05-12 10:23:21+00",17.4,20.4,,44.4,-770,171,43,1017.46,44.3,0
"2020-05-12 10:28:21+00",16.7,18.7,,44.3,-760,143,62,1017.64,44.2,0
"2020-05-12 10:33:21+00",16.2,18.2,,44.1,-721,152,55,1017.64,44.1,0
"2020-05-12 10:38:21+00",18.1,23.1,,44.1,-773,215,64,1017.73,44.2,0
"2020-05-12 10:43:21+00",19.3,21.3,,44.1,-879,144,45,1017.88,44.6,0
"2020-05-12 10:48:21+00",17.1,19.1,,44,-750,164,42,1017.96,44.8,0
"2020-05-12 10:53:21+00",18.8,21.8,,44.1,-837,213,60,1018.19,45.1,0
"2020-05-12 10:58:21+00",21.0,22.0,,44.1,-916,273,13,1018.11,45.3,0
"2020-05-12 11:03:21+00",19.4,21.4,,44.2,-864,249,37,1018.19,45.4,0
"2020-05-12 11:08:21+00",18.0,21.0,,44.4,-792,205,55,1018.2,45.6,0
"2020-05-12 11:13:21+00",22.2,25.2,,44.3,-931,419,45,1018.23,45.7,0
"2020-05-12 11:18:21+00",19.4,23.4,,44.6,-800,389,23,1018.29,45.8,0
"2020-05-12 11:23:21+00",20.4,23.4,,44.5,-792,513,60,1018.23,45.8,0
"2020-05-12 11:28:21+00",19.0,24.0,,44.8,-789,332,75,1018.32,46,0
"2020-05-12 11:33:21+00",16.7,21.7,,45,-694,321,77,1018.37,46.2,0
"2020-05-12 11:38:21+00",21.5,23.5,,44.9,-938,307,35,1018.46,46.4,0
"2020-05-12 11:43:21+00",21.4,23.4,,45.1,-925,348,29,1018.5,46.6,0
"2020-05-12 11:48:21+00",18.4,20.4,,45.6,-731,391,43,1018.5,46.8,0
"2020-05-12 11:53:21+00",21.4,23.4,,45.8,-858,454,48,1018.46,47.1,0
"2020-05-12 11:58:21+00",19.8,24.8,,46,-752,526,91,1018.56,47.2,0
"2020-05-12 12:03:21+00",19.0,21.0,,46.3,-729,456,84,1018.65,47.5,0
"2020-05-12 12:08:21+00",24.4,28.4,,46,-968,534,41,1018.55,47.5,0
"2020-05-12 12:13:21+00",20.2,24.2,,46.1,-792,484,65,1018.58,47.5,0
"2020-05-12 12:18:21+00",19.9,21.9,,46.5,-764,482,68,1018.64,47.7,0
"2020-05-12 12:23:21+00",21.3,28.3,,46.6,-856,462,61,1018.71,47.9,0
"2020-05-12 12:28:21+00",24.5,28.5,,46.6,-798,765,52,1018.71,48,0
"2020-05-12 12:33:21+00",25.4,29.4,,46.6,-776,826,85,1018.75,47.9,0
"2020-05-12 12:38:21+00",20.8,24.8,,46.6,-690,645,65,1018.84,48.1,0
"2020-05-12 12:43:21+00",20.5,24.5,,47,-734,576,87,1018.87,48.3,0
"2020-05-12 12:48:21+00",23.8,27.8,,47,-902,561,54,1018.9,48.6,0
"2020-05-12 12:53:21+00",25.6,28.6,,47,-907,718,47,1018.83,48.6,0
"2020-05-12 12:58:21+00",23.2,25.2,,47.1,-699,758,36,1018.86,48.7,0
"2020-05-12 13:03:21+00",24.4,30.4,,47.3,-872,675,70,1018.81,48.9,0
"2020-05-12 13:08:21+00",21.6,28.6,,47.6,-754,575,77,1018.83,49.2,0
"2020-05-12 13:13:21+00",21.5,25.5,,47.8,-576,757,75,1018.86,49.5,0
"2020-05-12 13:18:21+00",24.3,28.3,,48,-685,857,44,1018.78,49.9,0
"2020-05-12 13:23:21+00",21.0,25.0,,48.7,-622,689,67,1018.78,50.3,0
"2020-05-12 13:28:21+00",25.2,30.2,,48.5,-830,755,77,1018.68,50.4,0
"2020-05-12 13:33:21+00",23.6,25.6,,48.2,-864,627,54,1018.5,50.3,0
"2020-05-12 13:38:21+00",24.1,27.1,,48.4,-809,764,66,1018.38,50.4,0
"2020-05-12 13:43:21+00",20.3,23.3,,48.6,-680,610,93,1018.41,50.5,0
"2020-05-12 13:48:21+00",21.4,24.4,,48.6,-798,521,35,1018.29,50.7,0
"2020-05-12 13:53:21+00",21.4,24.4,,49.1,-708,641,44,1018.37,51,0
"2020-05-12 13:58:21+00",21.4,25.4,,48.8,-841,475,49,1018.32,51,0
"2020-05-12 14:03:21+00",20.3,22.3,,49.2,-775,474,95,1018.32,51.2,0
"2020-05-12 14:08:21+00",19.4,23.4,,49.5,-685,514,123,1018.31,51.4,0
"2020-05-12 14:13:21+00",15.2,18.2,,49.6,-459,483,46,1018.35,51.4,0
"2020-05-12 14:18:21+00",28.0,36.0,,49.3,-1073,638,74,1018.07,51.5,0
"2020-05-12 14:23:21+00",25.7,29.7,,49.5,-814,826,66,1018.06,51.7,0
"2020-05-12 14:28:21+00",21.0,25.0,,49.5,-756,585,52,1018.08,51.7,0
"2020-05-12 14:33:21+00",20.7,22.7,,49.7,-811,504,26,1018.07,52,0.8
"2020-05-12 14:38:21+00",16.2,19.2,,49.5,-563,437,30,1017.88,51.9,0
"2020-05-12 14:43:21+00",23.4,27.4,,49.9,-964,427,32,1017.78,52.1,0.7
"2020-05-12 14:48:21+00",20.9,24.9,,50.3,-900,357,50,1017.78,52.5,0.6
"2020-05-12 14:53:21+00",21.6,23.6,,50.4,-701,665,66,1017.91,52.6,0
"2020-05-12 14:58:21+00",19.5,21.5,,50.3,-787,441,75,1017.94,52.5,1.5
"2020-05-12 15:03:21+00",19.0,24.0,,50.5,-662,515,32,1018.04,52.8,4.4
"2020-05-12 15:08:21+00",20.9,23.9,,50.9,-826,436,54,1017.95,52.9,5.2
"2020-05-12 15:13:21+00",23.8,27.8,,50.9,-1018,400,42,1017.85,53,0
"2020-05-12 15:18:21+00",19.2,22.2,,50.9,-697,505,38,1017.85,53.3,11.9
"2020-05-12 15:23:21+00",17.8,20.8,,50.9,-790,277,37,1017.9,53,24.1
"2020-05-12 15:28:21+00",23.5,26.5,,51.3,-828,686,61,1017.84,53.5,59.8
"2020-05-12 15:33:21+00",17.5,20.5,,51.7,-687,420,26,1017.83,53.8,0
"2020-05-12 15:38:21+00",20.3,24.3,,51.7,-698,583,46,1017.84,53.9,55.7
"2020-05-12 15:43:21+00",16.1,22.1,,52.2,-611,400,54,1017.86,54.4,0
"2020-05-12 15:48:21+00",15.5,17.5,,51.6,-588,356,52,1017.84,53.8,0
"2020-05-12 15:53:21+00",16.4,19.4,,51.9,-695,261,92,1017.95,54,31.1
"2020-05-12 15:58:21+00",26.1,28.1,,51.9,-1023,604,60,1017.87,53.9,0
"2020-05-12 16:03:21+00",21.4,24.4,,52.2,-894,435,56,1017.85,54.2,0
"2020-05-12 16:08:21+00",22.3,28.3,,52,-965,220,53,1017.86,54.4,53.6
"2020-05-12 16:13:21+00",27.0,34.0,,52,-1069,515,51,1017.78,54.2,0
"2020-05-12 16:18:21+00",20.8,22.8,,52.1,-878,360,37,1017.84,54,17.1
"2020-05-12 16:23:21+00",25.5,27.5,,52,-1033,485,40,1017.82,54.2,2.7
"2020-05-12 16:28:21+00",24.0,28.0,,51.7,-1039,378,49,1017.82,53.7,0
"2020-05-12 16:33:21+00",21.8,23.8,,51.8,-975,250,42,1017.83,53.8,29.5
"2020-05-12 16:38:21+00",21.4,29.4,,52,-807,559,50,1017.84,54.1,0
"2020-05-12 16:43:21+00",23.7,26.7,,52.2,-1043,254,52,1017.86,54.3,6.1
"2020-05-12 16:48:21+00",23.9,27.9,,52.5,-1055,172,46,1017.72,54.9,6.7
"2020-05-12 16:53:21+00",25.1,30.1,,52.8,-1047,386,44,1017.67,55.4,47.8
"2020-05-12 16:58:21+00",23.8,27.8,,52.6,-1071,217,40,1017.67,55.8,112.5
"2020-05-12 17:03:21+00",23.0,30.0,,52.9,-974,383,44,1017.66,55.6,39.5
"2020-05-12 17:08:21+00",23.8,27.8,,53.1,-1063,240,69,1017.68,55.8,13.7
"2020-05-12 17:13:21+00",23.1,28.1,,52.7,-992,253,36,1017.69,55.8,50.3
"2020-05-12 17:18:21+00",18.6,21.6,,52.7,-768,325,61,1017.69,55.6,27.8
"2020-05-12 17:23:21+00",23.8,28.8,,53.5,-964,441,37,1017.45,56.2,4.7
"2020-05-12 17:28:21+00",23.4,26.4,,53.6,-998,332,52,1017.45,56.5,30.5
"2020-05-12 17:33:21+00",25.4,27.4,,53.2,-1080,378,33,1017.45,56.2,0
"2020-05-12 17:38:21+00",18.1,22.1,,54,-785,258,107,1017.48,56.5,5.9
"2020-05-12 17:43:21+00",26.5,30.5,,53.4,-1060,587,50,1017.45,56.5,1.7
"2020-05-12 17:48:21+00",21.5,24.5,,54,-817,524,81,1017.53,56.7,1.4
"2020-05-12 17:53:21+00",20.6,23.6,,53.6,-926,179,49,1017.44,56.8,0
"2020-05-12 17:58:21+00",23.8,25.8,,53.7,-1085,194,46,1017.45,56.2,2.3
"2020-05-12 18:03:21+00",18.6,22.6,,53.7,-697,460,81,1017.31,56.1,2.6
"2020-05-12 18:08:21+00",24.7,27.7,,54.2,-1082,339,63,1017.33,56.8,0
"2020-05-12 18:13:21+00",22.1,26.1,,53.9,-971,312,58,1017.33,56.7,0
"2020-05-12 18:18:21+00",19.9,26.9,,54.1,-883,209,40,1017.21,56.5,0
"2020-05-12 18:23:21+00",20.8,24.8,,54.5,-944,55,73,1017.14,56.7,0
"2020-05-12 18:28:21+00",20.4,23.4,,54.3,-846,379,24,1017.13,57,0
"2020-05-12 18:33:21+00",20.9,23.9,,54.5,-875,355,60,1016.99,57.2,0
"2020-05-12 18:38:21+00",18.5,23.5,,55.1,-784,325,89,1016.98,57.5,0
"2020-05-12 18:43:21+00",27.1,32.1,,55,-1180,362,54,1016.85,57.7,0
"2020-05-12 18:48:21+00",20.5,22.5,,55.4,-837,381,78,1016.87,57.9,0
"2020-05-12 18:53:21+00",24.5,26.5,,55.3,-1062,361,45,1016.85,57.9,0
"2020-05-12 18:58:21+00",24.9,28.9,,55.4,-1081,351,70,1016.82,58.1,0
"2020-05-12 19:03:21+00",23.1,26.1,,55.6,-952,401,44,1016.78,58.2,0
"2020-05-12 19:08:21+00",21.3,26.3,,55.3,-883,360,95,1016.72,58,0
"2020-05-12 19:13:21+00",17.6,19.6,,55.3,-700,396,49,1016.66,57.6,0
"2020-05-12 19:18:21+00",19.5,22.5,,55.3,-850,250,45,1016.55,57.5,0
"2020-05-12 19:23:21+00",17.7,21.7,,55.8,-744,291,98,1016.54,57.8,0
"2020-05-12 19:28:21+00",20.1,22.1,,56.1,-835,398,72,1016.44,58.5,0
"2020-05-12 19:33:21+00",18.5,21.5,,55.5,-799,247,51,1016.48,58.3,0
"2020-05-12 19:38:21+00",19.2,21.2,,55.6,-698,494,65,1016.45,57.8,0
"2020-05-12 19:43:21+00",17.5,23.5,,56.2,-745,322,67,1016.48,57.7,0
"2020-05-12 19:48:21+00",19.3,22.3,,56.1,-843,224,95,1016.42,58.2,0
"2020-05-12 19:53:21+00",23.7,27.7,,56,-1008,380,66,1016.34,57.8,0
"2020-05-12 19:58:21+00",19.3,22.3,,56.4,-814,339,23,1016.33,57.9,0
"2020-05-12 20:03:21+00",23.0,26.0,,56.5,-979,324,52,1016.21,58.2,0
"2020-05-12 20:08:21+00",21.4,25.4,,56.2,-868,389,66,1016.29,58.4,0
"2020-05-12 20:13:21+00",20.7,22.7,,56.1,-924,244,51,1016.31,58.1,0
"2020-05-12 20:18:21+00",20.6,24.6,,56.4,-882,360,66,1016.28,58.1,0
"2020-05-12 20:23:21+00",25.0,28.0,,56.3,-1061,434,43,1016.28,57.6,0
"2020-05-12 20:28:21+00",21.9,26.9,,56.9,-939,339,61,1016.38,57.7,0
"2020-05-12 20:33:21+00",21.9,26.9,,56.7,-945,286,52,1016.45,58.4,0
"2020-05-12 20:38:21+00",26.3,29.3,,57,-995,669,67,1016.32,58.7,0
"2020-05-12 20:43:21+00",23.4,27.4,,57.1,-997,394,65,1016.42,58.8,0
"2020-05-12 20:48:21+00",26.6,32.6,,57.2,-1143,465,72,1016.43,59.4,0
"2020-05-12 20:53:21+00",24.4,29.4,,56.9,-1057,264,48,1016.53,59.5,0
"2020-05-12 20:58:21+00",22.5,25.5,,57.2,-951,401,69,1016.52,59.5,0
"2020-05-12 21:03:21+00",20.5,23.5,,56.9,-804,459,47,1016.57,58.8,0
"2020-05-12 21:08:21+00",20.2,23.2,,57,-823,371,72,1016.64,58.8,0
"2020-05-12 21:13:21+00",20.5,23.5,,56.7,-884,309,44,1016.68,58.5,0
"2020-05-12 21:18:21+00",20.6,25.6,,57.1,-810,435,101,1016.64,58.9,0
"2020-05-12 21:23:21+00",21.2,25.2,,56.9,-888,366,48,1016.69,58.3,0
"2020-05-12 21:28:21+00",23.6,25.6,,57.2,-1018,336,60,1016.83,58.6,0
"2020-05-12 21:33:21+00",18.8,20.8,,57,-783,319,34,1016.77,58.8,0
"2020-05-12 21:38:21+00",21.6,23.6,,57.4,-866,438,33,1016.85,59.2,0
"2020-05-12 21:43:21+00",24.2,26.2,,57.5,-1024,368,64,1016.86,59.6,0
"2020-05-12 21:48:21+00",23.4,26.4,,57.1,-1033,332,66,1016.8,59.5,0
"2020-05-12 21:53:21+00",24.9,27.9,,57.3,-1091,370,42,1016.9,59.1,0
"2020-05-12 21:58:21+00",26.3,29.3,,57.3,-1138,434,44,1016.85,59.2,0
"2020-05-12 22:03:21+00",24.1,27.1,,57.1,-1049,317,45,1016.94,58.8,0
"2020-05-12 22:08:21+00",21.8,24.8,,57.2,-923,390,50,1017.04,58.5,0
"2020-05-12 22:13:21+00",21.8,23.8,,57,-971,175,48,1017.18,58.4,0
"2020-05-12 22:18:21+00",16.2,19.2,,57,-738,184,49,1017.21,58.4,0
"2020-05-12 22:23:21+00",18.5,21.5,,57.2,-791,277,38,1017.32,58.4,0
"2020-05-12 22:28:21+00",20.0,22.0,,57.4,-872,247,40,1017.33,58.5,0
"2020-05-12 22:33:21+00",26.6,30.6,,57.4,-1126,463,44,1017.3,58.1,0
"2020-05-12 22:38:21+00",23.5,25.5,,57.2,-1037,326,42,1017.43,58,0
"2020-05-12 22:43:21+00",19.3,21.3,,56.9,-837,284,45,1017.5,57.9,0
"2020-05-12 22:48:21+00",18.9,21.9,,56.6,-820,255,53,1017.63,57.4,0
"2020-05-12 22:53:21+00",20.6,22.6,,57.1,-874,331,48,1017.63,57,0
"2020-05-12 22:58:21+00",20.5,22.5,,57.4,-881,276,61,1017.76,57.4,0
"2020-05-12 23:03:21+00",17.9,19.9,,57.3,-766,299,36,1017.84,57.6,0
"2020-05-12 23:08:21+00",25.3,29.3,,57.4,-1104,367,45,1017.74,57.6,0
"2020-05-12 23:13:21+00",21.0,23.0,,57.1,-925,231,43,1017.9,57.3,0
"2020-05-12 23:18:21+00",21.0,25.0,,57.2,-921,217,34,1017.96,57.1,0
"2020-05-12 23:23:21+00",18.3,21.3,,57.2,-808,127,33,1018.06,57.2,0
"2020-05-12 23:28:21+00",19.9,22.9,,57.1,-883,179,39,1018.14,57,0
"2020-05-12 23:33:21+00",17.6,19.6,,56.8,-781,79,37,1018.24,56.8,0
"2020-05-12 23:38:21+00",20.2,22.2,,56.9,-896,180,40,1018.38,56.5,0
"2020-05-12 23:43:21+00",17.0,18.0,,56.7,-760,43,39,1018.52,56.2,0
"2020-05-12 23:48:21+00",16.9,18.9,,56.9,-744,-18,25,1018.56,56,0
"2020-05-12 23:53:21+00",19.5,21.5,,56.7,-868,123,48,1018.72,55.7,0
"2020-05-12 23:58:21+00",17.3,20.3,,56.3,-768,120,30,1018.8,55.3,0
